Terug naar catalogus

DELTA 1 DEB

ActiefSSO
NORAD 37655·DEBRIS·🇺🇸 United States

Gelanceerd Mar 5, 1978 vanaf Vandenberg Space Force Base

Loading…

Volgende Passages (komende 24 uur)

TLE

VersSource: Space-Track

Epoch: Sep 14, 2026, 06:11 UTC

1 37655U 78026JS  26257.25820124  .00000272  00000-0  18629-3 0  9995
2 37655  99.1924 271.8276 0013584  63.9094 296.3471 14.08300577678432

Volg DELTA 1 DEB in realtime met AllMySat

Download on the App Store